Location: Skanderborg
(56.0313°N, 9.9317°E)
Time: 00:12:39
(UTC+00:00)

Landsat 7 - Pass Details

Date: 15 August 2020
Orbit: 701 x 703 km, 98.1° (Epoch: 23 September)

Event Time Altitude Azimuth Distance (km) Brightness Sun altitude
Exits shadow 19:36:28 - 146° (SE) 2,598 6.2 -5.7°
Reaches altitude 10° 19:37:32 10° 143° (SE) 2,171 5.7 -5.8°
Maximum altitude 19:42:10 54° 67° (ENE) 854 4.1 -6.3°
Drops below altitude 10° 19:46:50 10° 351° (N) 2,185 7.1 -6.8°
Sets 19:49:08 0° 347° (NNW) 3,108 8.0 -7.1°
